This is the latest recevied weather packets stored in our database for station/object KE5QKR. If no packets are shown the sender has not sent any weather packets the latest 10 day(s).
| Time | Temp. | Humidity | Pressure | Rain* | Wind** | Luminosity | Snow |
|---|---|---|---|---|---|---|---|
| 1777389357 | 27.78° C | 76% | 1016.7 hPa | 0 mm | - | 606 W/m² | - |
| 1777389056 | 27.78° C | 76% | 1016.9 hPa | 0 mm | - | 584 W/m² | - |
| 1777388753 | 27.78° C | 77% | 1016.7 hPa | 0 mm | - | 577 W/m² | - |
| 1777388450 | 27.22° C | 79% | 1016.8 hPa | 0 mm | - | 410 W/m² | - |
| 1777388149 | 27.22° C | 79% | 1016.8 hPa | 0 mm | - | 571 W/m² | - |
| 1777387543 | 27.22° C | 81% | 1017.2 hPa | 0 mm | - | 539 W/m² | - |
| 1777386933 | 25.56° C | 86% | 1017 hPa | 0 mm | - | 482 W/m² | - |
| 1777386631 | 26.11° C | 86% | 1017 hPa | 0 mm | - | 127 W/m² | - |
| 1777385419 | 26.11° C | 87% | 1017 hPa | 0 mm | - | 291 W/m² | - |
| 1777384811 | 25.56° C | 88% | 1017.1 hPa | 0 mm | - | 191 W/m² | - |
| 1777383595 | 23.89° C | 96% | 1016.9 hPa | 0 mm | - | 331 W/m² | - |
| 1777383292 | 23.89° C | 98% | 1017 hPa | 0 mm | - | 336 W/m² | - |
| 1777382379 | 23.33° C | 99% | 1016.9 hPa | 0 mm | - | 130 W/m² | - |
| 1777381772 | 23.33° C | 99% | 1017.2 hPa | 0 mm | - | 177 W/m² | - |
| 1777381467 | 22.78° C | 99% | 1017 hPa | 0 mm | - | 154 W/m² | - |
| 1777381163 | 22.22° C | 99% | 1017 hPa | 0 mm | - | 135 W/m² | - |
| 1777380558 | 22.22° C | 99% | 1016.8 hPa | 0 mm | - | 105 W/m² | - |
| 1777380254 | 22.22° C | 99% | 1016.3 hPa | 0 mm | - | 119 W/m² | - |
| 1777379341 | 21.67° C | 99% | 1016.5 hPa | 0 mm | - | 63 W/m² | - |
| 1777378731 | 21.11° C | 99% | 1016.3 hPa | 0 mm | - | 54 W/m² | - |
| 1777378122 | 21.11° C | 99% | 1016 hPa | 0 mm | - | 45 W/m² | - |
| 1777377207 | 20.56° C | 99% | 1015.9 hPa | 0 mm | - | 28 W/m² | - |
| 1777375994 | 20° C | 99% | 1015.8 hPa | 0 mm | - | 6 W/m² | - |
| 1777375693 | 20° C | 99% | 1015.6 hPa | 0 mm | - | 4 W/m² | - |
| 1777374174 | 19.44° C | 99% | 1015.2 hPa | 0 mm | - | 0 W/m² | - |
* Rain latest hour (hover to see other rain measurements)
** Current wind speed in m/s (hover to see current wind gust speed)